Location: Eckley Miners' Village
(40.9930°N, 75.8630°W)
Time: 11:56:30
(UTC-04:00)

Vanguard 1 Rocket - Pass Details

Date: 10 March 2026
Orbit: 654 x 4213 km, 34.3° (Epoch: 11 April)

Event Time Altitude Azimuth Distance (km) Brightness Sun altitude
Rises 14:55:03 0° 266° (W) 3,663 10.9 39.5°
Reaches altitude 10° 14:57:48 10° 251° (WSW) 3,026 10.9 39.2°
Maximum altitude 15:03:34 24° 200° (SSW) 2,824 11.6 38.6°
Drops below altitude 10° 15:12:30 10° 154° (SSE) 4,867 11.5 37.6°
Sets 15:18:37 0° 143° (SE) 6,576 11.9 36.8°
